Location: Newark
(37.8333°N, 119.5000°W)
Time: 03:30:00
(UTC+00:00)

Tiros 1 - All Passes

Search period start: 22 August 2019 00:00
Search period end: 01 September 2019 00:00
Orbit: 630 x 664 km, 48.4° (Epoch: 21 August)

Date Brightness Start Highest point End Pass type
(mag) Time Alt. Az. Time Alt. Az. Time Alt. Az.
22 Aug - 05:47:01 10° SE 05:47:22 10° SE 05:47:43 10° ESE night (unlit)
22 Aug - 07:24:17 10° SW 07:28:50 65° SE 07:33:26 10° ENE night (unlit)
22 Aug - 09:07:04 10° W 09:11:16 33° NNW 09:15:32 10° NE visible
22 Aug - 10:50:51 10° NW 10:54:29 22° N 10:58:09 10° NE visible
22 Aug - 12:33:23 10° NW 12:37:41 34° NNE 12:42:00 10° E visible
22 Aug - 14:15:27 10° WNW 14:20:07 64° SW 14:24:49 10° SE daylight
22 Aug - 16:00:59 10° WSW 16:01:37 10° SW 16:02:16 10° SW daylight
23 Aug - 06:09:13 10° S 06:13:01 26° SE 06:16:50 10° ENE night (unlit)
23 Aug - 07:50:22 10° WSW 07:54:56 61° NNW 07:59:32 10° NE visible
23 Aug - 09:33:59 10° WNW 09:37:48 24° N 09:41:39 10° NE visible
23 Aug - 11:17:17 10° NW 11:21:07 24° N 11:24:59 10° ENE visible
23 Aug - 12:59:23 10° NW 13:04:01 59° NNE 13:08:41 10° ESE daylight
23 Aug - 14:41:59 10° WNW 14:46:00 28° SW 14:50:01 10° SSE daylight
24 Aug - 06:34:20 10° SW 06:38:51 60° SE 06:43:25 10° ENE night (unlit)
24 Aug - 08:17:00 10° W 08:21:14 35° NNW 08:25:32 10° NE visible
24 Aug - 10:00:49 10° NW 10:04:26 22° N 10:08:04 10° NE visible
24 Aug - 11:43:24 10° NW 11:47:38 33° NNE 11:51:54 10° E visible
24 Aug - 13:25:27 10° WNW 13:30:07 69° SW 13:34:50 10° SE daylight
24 Aug - 15:10:09 10° WSW 15:11:40 11° SW 15:13:11 10° SSW daylight
25 Aug - 05:19:24 10° S 05:23:03 23° SE 05:26:43 10° E night (unlit)
25 Aug - 07:00:20 10° WSW 07:04:55 66° NNW 07:09:33 10° NE night (unlit)
25 Aug - 08:43:54 10° WNW 08:47:44 25° NNW 08:51:37 10° NE visible
25 Aug - 10:27:17 10° NW 10:31:03 24° N 10:34:52 10° ENE visible
25 Aug - 12:09:24 10° NW 12:13:59 55° NNE 12:18:37 10° ESE visible
25 Aug - 13:51:55 10° WNW 13:56:01 30° SW 14:00:09 10° SSE daylight
26 Aug - 05:44:23 10° SW 05:48:52 55° SE 05:53:24 10° ENE night (unlit)
26 Aug - 07:26:56 10° W 07:31:13 37° NNW 07:35:32 10° NE night (unlit)
26 Aug - 09:10:46 10° NW 09:14:22 22° N 09:18:00 10° NE visible
26 Aug - 10:53:26 10° NW 10:57:36 31° NNE 11:01:48 10° E visible
26 Aug - 12:35:27 10° WNW 12:40:08 75° SW 12:44:50 10° SE visible
26 Aug - 14:19:41 10° WSW 14:21:43 13° SW 14:23:44 10° SSW daylight
27 Aug - 04:29:36 10° S 04:33:05 21° SE 04:36:36 10° E night (unlit)
27 Aug - 06:10:19 10° WSW 06:14:55 70° NNW 06:19:33 10° NE night (unlit)
27 Aug - 07:53:50 10° WNW 07:57:42 26° NNW 08:01:36 10° NE night (unlit)
27 Aug - 09:37:17 10° NW 09:41:01 23° N 09:44:46 10° ENE visible
27 Aug - 11:19:25 10° NW 11:23:58 51° NNE 11:28:33 10° ESE visible
27 Aug - 13:01:51 10° WNW 13:06:02 33° SW 13:10:15 10° SSE daylight
28 Aug - 04:54:26 10° SW 04:58:54 50° SE 05:03:22 10° ENE visible
28 Aug - 06:36:52 10° W 06:41:11 38° NNW 06:45:32 10° NE night (unlit)
28 Aug - 08:20:42 10° NW 08:24:19 22° N 08:27:57 10° NE night (unlit)
28 Aug - 10:03:27 10° NW 10:07:33 30° NNE 10:11:42 10° E visible
28 Aug - 11:45:27 10° WNW 11:50:08 81° SW 11:54:50 10° SE visible
28 Aug - 13:29:21 10° W 13:31:45 14° SW 13:34:09 10° SSW daylight
29 Aug - 03:39:49 10° S 03:43:08 20° SE 03:46:27 10° E visible
29 Aug - 05:20:18 10° WSW 05:24:55 76° NNW 05:29:33 10° NE visible
29 Aug - 07:03:45 10° WNW 07:07:39 26° NNW 07:11:35 10° NE night (unlit)
29 Aug - 08:47:16 10° NW 08:50:57 23° N 08:54:40 10° ENE night (unlit)
29 Aug - 10:29:26 10° NW 10:33:57 48° NNE 10:38:29 10° ESE visible
29 Aug - 12:11:48 10° WNW 12:16:03 36° SW 12:20:21 10° SSE visible
30 Aug - 04:04:31 10° SSW 04:08:55 46° SE 04:13:20 10° ENE visible
30 Aug - 05:46:48 10° W 05:51:09 40° NNW 05:55:33 10° NE visible
30 Aug - 07:30:38 10° NW 07:34:15 22° N 07:37:53 10° NE night (unlit)
30 Aug - 09:13:27 10° NW 09:17:31 29° NNE 09:21:36 10° ENE night (unlit)
30 Aug - 10:55:27 10° WNW 11:00:08 87° SSW 11:04:50 10° SE visible
30 Aug - 12:39:05 10° W 12:41:48 15° SW 12:44:30 10° SSW visible
31 Aug - 02:50:04 10° S 02:53:11 18° SE 02:56:18 10° E visible
31 Aug - 04:30:18 10° WSW 04:34:55 81° NW 04:39:33 10° NE visible
31 Aug - 06:13:40 10° WNW 06:17:36 27° NNW 06:21:34 10° NE visible
31 Aug - 07:57:15 10° NW 08:00:54 22° N 08:04:35 10° ENE night (unlit)
31 Aug - 09:39:27 10° NW 09:43:55 45° NNE 09:48:25 10° E night (unlit)
31 Aug - 11:21:46 10° WNW 11:26:05 39° SW 11:30:26 10° SSE visible
